Regional Weather Roundup
Issued by NWS Charleston, WV

Home | Current Version | Previous Version | Text Only | Print | Product List | Glossary Off
Versions: 1 2 3 4 5 6 7 8 9 10 11 12 13 14 15 16 17 18 19 20 21 22 23 24 25 26 27 28 29 30 31 32 33 34 35 36 37 38 39 40 41 42 43 44 45 46 47 48 49 50

000
ASUS41 KRLX 201010
RWRRLX
West Virginia Regional Weather Roundup
National Weather Service Charleston WV
500 AM EST SAT DEC 20 2014

Note: "fair" indicates few or no clouds below 12,000 feet with no
significant weather and/or obstructions to visibility.

WVZ003-201100-
Northern Panhandle of West Virginia

CITY           SKY/WX    TMP DP  RH WIND       PRES   REMARKS
WHEELING       CLOUDY    29  19  66 CALM      30.25R
$$

WVZ009-201100-
Northwest West Virginia

CITY           SKY/WX    TMP DP  RH WIND       PRES   REMARKS
PARKERSBURG    CLOUDY    30  22  72 N5        30.27F
$$

WVZ006-201100-
Western West Virginia

CITY           SKY/WX    TMP DP  RH WIND       PRES   REMARKS
HUNTINGTON     CLOUDY    29  24  82 CALM      30.24R
$$

WVZ015-201100-
West Central West Virginia

CITY           SKY/WX    TMP DP  RH WIND       PRES   REMARKS
CHARLESTON     MOCLDY    28  22  78 E3        30.22F
$$

WVZ022-031-201100-
North Central West Virginia

CITY           SKY/WX    TMP DP  RH WIND       PRES   REMARKS
CLARKSBURG     CLOUDY    29  21  72 CALM      30.25R
MORGANTOWN     CLOUDY    30  19  63 CALM      30.25R
$$

WVZ025-035-042-045-201100-
Southern West Virginia

CITY           SKY/WX    TMP DP  RH WIND       PRES   REMARKS
BECKLEY        CLOUDY    26  21  81 SE3       30.14S
LOGAN          CLOUDY    27  23  86 NE5       30.17F
BLUEFIELD      CLOUDY    26  21  81 SE6       30.13R
LEWISBURG      CLOUDY    24  21  90 CALM      30.17R
$$

WVZ047-201100-
Northern Mountains of West Virginia

CITY           SKY/WX    TMP DP  RH WIND       PRES   REMARKS
ELKINS         CLOUDY    24  21  88 N3        30.19F
$$

WVZ052-201100-
Eastern Panhandle of West Virginia

CITY           SKY/WX    TMP DP  RH WIND       PRES   REMARKS
MARTINSBURG    CLEAR     21  15  78 CALM      30.25R
PETERSBURG     MOCLDY    20  19  96 N3        30.26R
$$


USA.gov is the U.S. government's official web portal to all federal, state and local government web resources and services.